Change the Weather History Date:

Friday, April 26, 2013

  Actual Average Record
Temperature  
Mean Temperature 84 °F -  
Max Temperature 96 °F - - ()
Min Temperature 72 °F - - ()
Cooling Degree Days 19    
Growing Degree Days 34 (Base 50)    
Moisture  
Dew Point 66 °F    
Average Humidity 59    
Maximum Humidity 83    
Minimum Humidity 20    
Precipitation  
Precipitation 0.00 in - - ()
Sea Level Pressure  
Sea Level Pressure 29.95 in    
Wind  
Wind Speed 4 mph ()    
Max Wind Speed 7 mph    
Max Gust Speed -    
T = Trace of Precipitation, MM = Missing Value Source: Averaged Metar Reports

Daily Weather History Graph

Daily Weather History Graph

Search for Another Location

Airport or City:

Trip Planner

Search our weather history database for the weather conditions in past years. The results will help you decide how hot, cold, wet, or windy it might be!

Date:

Astronomy

Apr. 26, 2013 Rise Set
Actual Time 5:56 AM AWST 5:28 PM AWST
Civil Twilight 5:34 AM AWST 5:50 PM AWST
Nautical Twilight 5:08 AM AWST 6:16 PM AWST
Astronomical Twilight 4:42 AM AWST 6:41 PM AWST
Moon 5:52 PM AWST (4/26) 6:04 AM AWST (4/26)
Length of Visible Light 12h 16m
Length of Day
11h 32m
Full, 100% of the Moon is Illuminated
Apr 26
Full
May 2
Last Quarter
May 10
New
May 18
First Quarter
May 25
Full

Hourly Weather History & Observations

Time (AWST) Temp. Heat Index Dew Point Humidity Pressure Visibility Wind Dir Wind Speed Gust Speed Precip Events Conditions
12:00 AM 77 °F - 70 °F 73% 29.97 in - South 4.6 mph - -  
12:00 AM 77.0 °F - 69.8 °F 78% 29.98 in - South 4.6 mph - N/A   Unknown
1:00 AM 77.0 °F - 69.8 °F 78% 29.95 in - North 5.8 mph - N/A   Unknown
2:00 AM 77.0 °F - 69.8 °F 78% 29.95 in - NNE 3.5 mph - N/A   Unknown
3:00 AM 76 °F - 69 °F 75% 29.94 in - Calm Calm - -  
3:00 AM 75.2 °F - 69.8 °F 83% 29.95 in - Calm Calm - N/A   Unknown
4:00 AM 75.2 °F - 68.0 °F 78% 29.95 in - SSW 4.6 mph - N/A   Unknown
5:00 AM 73.4 °F - 68.0 °F 83% 29.95 in - South 3.5 mph - N/A   Unknown
6:00 AM 73 °F - 67 °F 76% 29.96 in - South 4.6 mph - -  
6:00 AM 73.4 °F - 66.2 °F 78% 29.95 in - South 4.6 mph - N/A   Unknown
7:00 AM 77.0 °F - 66.2 °F 69% 29.98 in - South 5.8 mph - N/A   Unknown
8:00 AM 78.8 °F - 68.0 °F 69% 29.98 in - SSE 5.8 mph - N/A   Unknown
9:00 AM 82 °F - 69 °F 57% 29.98 in - SE 4.6 mph - -  
9:00 AM 82.4 °F 86.3 °F 69.8 °F 66% 29.98 in - SE 4.6 mph - N/A   Unknown
10:00 AM 86.0 °F 88.2 °F 66.2 °F 51% 29.98 in - ESE 5.8 mph - N/A   Unknown
11:00 AM 91.4 °F 93.2 °F 64.4 °F 41% 29.98 in - ESE 6.9 mph - N/A   Unknown
12:00 PM 96 °F - 63 °F 24% 29.94 in - East 6.9 mph - -  
12:00 PM 95.0 °F 96.0 °F 62.6 °F 34% 29.95 in - East 6.9 mph - N/A   Unknown
1:00 PM 95.0 °F 96.0 °F 62.6 °F 34% 29.92 in - East 2.3 mph - N/A   Unknown
2:00 PM 96.8 °F 96.2 °F 59.0 °F 28% 29.89 in - NE 6.9 mph - N/A   Unknown
3:00 PM 96 °F - 60 °F 20% 29.88 in - NE 4.6 mph - -  
3:00 PM 96.8 °F 96.2 °F 59.0 °F 28% 29.89 in - NE 4.6 mph - N/A   Unknown
4:00 PM 95.0 °F 95.2 °F 60.8 °F 32% 29.89 in - Calm Calm - N/A   Unknown
5:00 PM 89.6 °F 93.4 °F 68.0 °F 49% 29.89 in - Calm Calm - N/A   Unknown
6:00 PM 82 °F - 67 °F 51% 29.91 in - SSW 3.5 mph - -  
6:00 PM 82.4 °F 84.6 °F 66.2 °F 58% 29.92 in - SSW 3.5 mph - N/A   Unknown
7:00 PM 80.6 °F 82.3 °F 64.4 °F 58% 29.95 in - ESE 3.5 mph - N/A   Unknown
8:00 PM 77.0 °F - 68.0 °F 74% 29.95 in - Calm Calm - N/A   Unknown
9:00 PM 75 °F - 66 °F 67% 29.96 in - Calm Calm - -  
9:00 PM 75.2 °F - 66.2 °F 73% 29.98 in - Calm Calm - N/A   Unknown
10:00 PM 77.0 °F - 64.4 °F 65% 29.98 in - SW 5.8 mph - N/A   Unknown
11:00 PM 78.8 °F - 64.4 °F 61% 29.95 in - SSW 5.8 mph - N/A   Unknown